Regional Weather Roundup
Issued by NWS Wakefield, VA

Home | Current Version | Previous Version | Text Only | Print | Product List | Glossary Off
Versions: 1 2 3 4 5 6 7 8 9 10 11 12 13 14 15 16 17 18 19 20 21 22 23 24 25 26 27 28

000
ASUS41 KAKQ 250514
RWRAKQ

REGIONAL WEATHER ROUNDUP
NATIONAL WEATHER SERVICE WAKEFIELD VA
100 AM EDT FRI MAY 25 2018

Note: "fair" indicates few or no clouds below 12,000 feet with no
significant weather and/or obstructions to visibility. * = Denotes
station may not report precipitation (e.g., rain,snow,etc.),
thunder or fog.

VAZ042-051-052>054-056-250600-
NORTHERN VIRGINIA

CITY           SKY/WX    TMP DP  RH WIND       PRES   REMARKS
WASH NATIONAL  FAIR      68  60  75 S6        30.14S
DULLES         FAIR      61  56  83 S3        30.14S
FORT BELVOIR   FAIR      59  57  95 CALM      30.14S
QUANTICO       FAIR      64  61  90 NW6       30.14F
FREDERICKSBRG* FAIR      61  56  85 CALM      30.14S
STAFFORD*      FAIR      56  56 100 CALM      30.18S
WARRENTON      FAIR      55  52  89 CALM      30.13F
CULPEPER*      FAIR      57  55  93 CALM      30.15F
MANASSAS*      FAIR      58  57  97 CALM      30.14F
LEESBURG*      FAIR      61  57  88 CALM      30.14F
WINCHESTER     FAIR      57  50  77 SW5       30.16S
FRONT ROYAL*   FAIR      59  52  77 S3        30.14S
LURAY*         FAIR      57  54  88 CALM      30.16F
$$

VAZ048-049-060>072-079>083-250600-
CENTRAL AND SOUTH CENTRAL VIRGINIA

CITY           SKY/WX    TMP DP  RH WIND       PRES   REMARKS
RICHMOND       FAIR      66  61  84 CALM      30.15F
CHESTERFIELD*  FAIR      64  60  87 CALM      30.15
PETERSBURG*    FAIR      60  58  94 CALM      30.16S
HANOVER        FAIR      62  60  93 CALM      30.16F
TAPPAHANNOCK*  FAIR      63  61  93 CALM      30.16S
QUINTON*       FAIR      63  63 100 CALM      30.15F
CHARLOTTSVILLE FAIR      64  55  72 CALM      30.15F
GORDONSVILLE*  FAIR      57  57 100 CALM      30.15S
ORANGE*        FAIR      59  55  88 CALM      30.15S
LOUISA*        FAIR      55  54  97 SE6       30.19F
BUMPASS*       FAIR      61  59  93 S6        30.15S
FARMVILLE*     FAIR     N/A N/A N/A CALM      30.14F
CREWE*         FAIR      59  59 100 CALM      30.15F
FORT PICKETT*  FAIR      65  59  80 S8        30.16S
CHASE CITY*    FAIR      63  63 100 CALM      30.16S
CLARKSVILLE*   FAIR      63  63 100 CALM      30.16S
SOUTH HILL*    FAIR      62  62 100 CALM      30.22S
LAWRENCEVILLE* FAIR      64  60  88 CALM      30.16S
EMPORIA*       FAIR      63  59  88 CALM      30.17F
$$

VAZ088>098-250600-
SOUTHEAST VIRGINIA

CITY           SKY/WX    TMP DP  RH WIND       PRES   REMARKS
NORFOLK        FAIR      67  64  90 CALM      30.15F
VIRGINIA BEACH FAIR      62  62 100 CALM      30.14F
NORFOLK NAVAL  FAIR      63  60  90 CALM      30.16F
WEST POINT*    FAIR      63  60  93 CALM      30.17S
SALUDA*        FAIR      63  63 100 CALM      30.16S
NEWPORT NEWS   FAIR      61  58  90 CALM      30.15F
LANGLEY AFB    FAIR      65  64  97 CALM      30.15F
FORT EUSTIS    FAIR      67  63  87 NE3       30.13F
WILLIAMSBURG*  FAIR      66  64  94 CALM      30.16F
HR EXEC AP*    FAIR      56  55  97 CALM      30.16F
FRANKLIN*      FAIR      59  59  98 CALM      30.16S
US460-WAKEFLD  FAIR      63  60  90 CALM      30.15F
$$

VAZ020-022-025-037-045-250600-
WEST CENTRAL AND SOUTHWEST VIRGINIA

CITY           SKY/WX    TMP DP  RH WIND       PRES   REMARKS
STAUNTON*      FAIR      57  55  92 CALM      30.20S
WAYNESBORO*    FAIR      64  53  68 SW3       30.19S
HOT SPRINGS VA FAIR      61  49  64 S8        30.27F
LYNCHBURG      FAIR      60  55  83 CALM      30.17F
DANVILLE       FAIR      63  63 100 S3        30.16S
SOUTH BOSTON*  FAIR      61  59  95 CALM      30.16S
MARTINSVILLE   FAIR      61  60  97 CALM      30.19F
ROANOKE        FAIR      65  60  84 CALM      30.19F
BLACKSBURG     MOCLDY    64  60  88 CALM      30.24F
DUBLIN*        FAIR      66  61  84 CALM      30.22F
MARION*        CLOUDY    68  63  84 NE7       30.24S
HILLSVILLE*    FAIR      64  59  84 S3        30.22S
RICHLANDS*     FAIR      67  51  57 CALM      30.20S
WISE*          FAIR      68  61  77 S6        30.19F
ABINGDON*      FAIR      68  62  83 CALM      30.17S
$$

MDZ021>025-VAZ099-100-250600-
SOUTHERN MARYLAND AND THE DELMARVA PENINSULA

CITY           SKY/WX    TMP DP  RH WIND       PRES   REMARKS
PATUXENT RIVER FAIR      68  63  84 S5        30.14F
BAY BRIDGE APT NOT AVBL
LEONARDTOWN    FAIR      63  61  94 S3        30.16F
DOVER          FAIR      64  57  77 S8        30.13F
GEORGETOWN     FAIR      62  56  80 SW3       30.15F
EASTON         FAIR      67  62  84 CALM      30.18S
CAMBRIDGE      CLEAR     66  63  88 VRB3      30.15S
SALISBURY      FAIR      62  57  83 S3        30.15F
TANGIER        FAIR      66  64  94 SE9       30.15F
OCEAN CITY     FAIR      62  60  93 W5        30.16F
WALLOPS ISLAND FAIR      65  60  84 CALM      30.16F
ACCOMACK*      FAIR      59  58  97 SE3       30.16F
$$

NCZ012>017-030>032-250600-
NORTH CENTRAL AND EASTERN NORTH CAROLINA

CITY           SKY/WX    TMP DP  RH WIND       PRES   REMARKS
ROANOKE RAPIDS FAIR      61  61 100 CALM      30.16S
RALEIGH        FAIR      70  65  84 SE3       30.16F
ELIZABETH CITY FAIR      64  64 100 SW3       30.16S
AHOSKIE*       FAIR      59  59  99 CALM      30.17S
EDENTON*       FAIR      64  60  88 CALM      30.17S
CURRITUCK*     NOT AVBL
KILL DEVIL HLS FAIR      65  65 100 CALM      30.14F
MANTEO         FAIR      62  61  97 CALM      30.16F
CAPE HATTERAS  FAIR      67  59  75 E5        30.16S
TARBORO*       NOT AVBL
GOLDSBORO      FAIR      66  62  88 CALM      30.14F
WASHINGTON     FAIR      63  61  93 CALM      30.17S
GREENVILLE     FAIR      64  61  88 CALM      30.17F
NEW BERN       FAIR      63  62  97 CALM      30.17S
WILMINGTON     FAIR      70  67  90 CALM      30.14F
$$

VAZ048-250600-
ELSEWHERE

CITY           SKY/WX    TMP DP  RH WIND       PRES   REMARKS
HARRISBURG PA  FAIR      66  52  60 E3        30.10F
BALTIMORE      FAIR      65  50  58 SW5       30.12F
ANNAPOLIS      FAIR      69  55  60 CALM      30.13F
ANDREWS AFB    FAIR      63  54  73 CALM      30.13F
PHILADELPHIA   FAIR      65  55  70 SW7       30.12F
HENDERSON NC   FAIR      65  58  78 S5        30.16F
GREENSBORO     FAIR      70  66  87 S7        30.15F
ROCKY MOUNT    FAIR      66  62  87 CALM      30.16F
$$

VAZ100-250600-
MARINE

STATION/POSITION TIME  TEMP    WIND        PRES    WAVE   SWELL
                       AIR SEA DIR/SP/G            HT/PER HT/PER
                 (UTC) (F)     (DEG/KT/KT) (MB)    (FT/S) (FT/S)
BRANDYWINE LGT   0442   66     220/ 11/ 13 1021.0F
CAPE MAY NJ      0442   64 66  190/  3/  4 1020.2F
LEWES DE         0442   64 65  210/  4/  7 1020.6F
15NM E FENWICK I 0450   61 62  200/  6/  8 1021.4F   1/ 8   2/ 8
OCEAN-CITY-INLET 0442   65 69  260/  4/  5 1021.5F
WACHAPREAGUE VA  0442   65 78  190/  2/  4 1021.4F
THOMAS POINT MD  0500   70 70  190/ 13/ 14 1021.1F
GOOSES REEF MD   0500   71     190/ 10/ 12 1020.9    1/ 2
COVE POINT MD    0442   69     200/  9/ 12 1021.4F
SOLOMONS ISLAND  0406   69 72  150/  3/  4 1020.9
BISHOPS HEAD MD  0442   71 77  180/ 11/ 12 1021.4F
PINEY POINT MD   0436          200/  9/ 11   N/A
POTOMAC MD       0500   70 73  180/ 10/ 12 1020.2    1/ 2
CAMBRIDGE MD     0442   67 76              1021.7F
LEWISETTA VA     0442   69 76  210/  8/ 10 1021.0F
RAPPAHANNOCK LGT 0436          140/  7/  8 1021.9F
STINGRAY PT      0500   71 75  210/ 10/ 12 1020.4    1/ 3
YORK RVR RNG VA  0442   72     180/  8/  9 1021.6F
YORKTOWN VA      0442   69 75  170/  3/  5 1020.6F
DOMINION TERM VA 0442   71     130/  5/  6 1021.3F
KIPTOPEKE VA     0436      71  140/  3/  4   N/A
CAPE HENRY VA    0436   67      CALM  /  2   N/A
WILLOUBY STN VA  0436          140/  6/  6   N/A
S CRANEY ISL VA  0436   70     130/  4/  4 1021.0F
CAPE HENRY BUOY  0500      70                N/A     2/ 8
1ST LANDING BUOY 0450   69     170/  4/  6 1021.1F
64NM E OF VA BCH 0450   65 67  120/  2/  4 1021.8F   2/ 9   2/ 9
DUCK PIER NC     0436   69 72  110/  4/  5 1020.8F
44100 DUCK FRF   0445      72                N/A     2/ 9
44056 DUCK FRF   0500      71                N/A     1/ 8
OREGON INLET NC  0436   67 74   70/  3/  5 1021.1F
HATTERAS NC      0436   70 77   80/  3/  5 1020.8F
DIAMOND SHLS NC  0500   77 78  100/  8/ 10 1021.2
CAPE LOOKOUT NC  0500           70/  6/  7 1021.2F
$$




USA.gov is the U.S. government's official web portal to all federal, state and local government web resources and services.